This demonstration page uses our WeatherBlox Daily Observations layout. Learn more.

Hourly Observations for January 26, 2020

Temp ( °F °C ) Dew Point ( °F °C ) Humidity (%) Winds ( mph kmh ) Pressure ( in mb ) Visibility ( mi km ) Precip ( " mm )
12:15 am 00:15 Cloudy 37 3 32 0 81 81 WNW 5 7 29.94 1014 10 16.0934 0 0
12:35 am 00:35 Cloudy 37 3 32 0 81 81 W 5 7 29.94 1014 10 16.0934 0 0
12:55 am 00:55 Mostly Cloudy 36 2 32 0 87 87 W 3 6 29.93 1013 10 16.0934 0 0
1:15 am 01:15 Mostly Cloudy 36 2 32 0 87 87 WNW 6 9 29.93 1013 10 16.0934 0 0
1:35 am 01:35 Mostly Cloudy 37 3 32 0 81 81 NW 6 9 29.94 1014 10 16.0934 0 0
1:55 am 01:55 Mostly Cloudy 36 2 32 0 87 87 WNW 5 7 29.94 1014 10 16.0934 0 0
2:15 am 02:15 Cloudy 36 2 32 0 87 87 WNW 8 13 29.93 1013 10 16.0934 0 0
2:35 am 02:35 Cloudy 39 4 32 0 75 75 WNW 8 13 29.94 1014 10 16.0934 0 0
2:55 am 02:55 Cloudy 37 3 32 0 81 81 WNW 6 9 29.93 1013 10 16.0934 0 0
3:15 am 03:15 Mostly Cloudy 37 3 32 0 81 81 W 5 7 29.93 1013 10 16.0934 0 0
3:35 am 03:35 Mostly Cloudy 36 2 32 0 87 87 W 5 7 29.93 1013 10 16.0934 0 0
3:55 am 03:55 Mostly Cloudy 36 2 32 0 87 87 W 5 7 29.93 1013 10 16.0934 0 0
4:15 am 04:15 Partly Cloudy 36 2 32 0 87 87 WSW 5 7 29.92 1013 10 16.0934 0 0
4:35 am 04:35 Clear 36 2 32 0 87 87 WSW 5 7 29.92 1013 10 16.0934 0 0
4:55 am 04:55 Clear 34 1 32 0 93 93 WSW 3 6 29.92 1013 10 16.0934 0 0
5:15 am 05:15 Partly Cloudy 36 2 32 0 87 87 W 9 15 29.92 1013 10 16.0934 0 0
5:35 am 05:35 Partly Cloudy 36 2 32 0 87 87 SW 3 6 29.92 1013 10 16.0934 0 0
5:55 am 05:55 Clear 34 1 32 0 93 93 SSW 6 9 29.92 1013 10 16.0934 0 0
6:15 am 06:15 Clear 34 1 32 0 93 93 WSW 5 7 29.93 1014 10 16.0934 0 0
6:35 am 06:35 Clear 34 1 32 0 93 93 WSW 3 6 29.93 1014 10 16.0934 0 0
6:55 am 06:55 Clear 34 1 32 0 93 93 W 6 9 29.94 1014 10 16.0934 0 0
7:15 am 07:15 Clear 32 0 32 0 100 100 W 6 9 29.94 1014 10 16.0934 0 0
7:35 am 07:35 Sunny 36 2 32 0 87 87 W 7 11 29.94 1014 10 16.0934 0 0
7:55 am 07:55 Sunny 36 2 32 0 87 87 WSW 3 6 29.95 1014 10 16.0934 0 0
8:15 am 08:15 Sunny 37 3 32 0 81 81 SW 3 6 29.95 1014 10 16.0934 0 0
8:35 am 08:35 Sunny 37 3 32 0 81 81 W 3 6 29.95 1014 10 16.0934 0 0
8:55 am 08:55 Sunny 41 5 32 0 70 70 W 6 9 29.94 1014 10 16.0934 0 0
9:15 am 09:15 Sunny 43 6 32 0 66 66 WNW 6 9 29.94 1014 10 16.0934 0 0
9:35 am 09:35 Sunny 43 6 32 0 66 66 W 7 11 29.94 1014 10 16.0934 0 0
9:55 am 09:55 Sunny 43 6 32 0 66 66 WNW 14 22 29.94 1014 10 16.0934 0 0
10:15 am 10:15 Mostly Cloudy 45 7 32 0 61 61 WNW 10 17 29.94 1014 10 16.0934 0 0
10:35 am 10:35 Cloudy 45 7 32 0 61 61 NW 10 17 29.94 1014 10 16.0934 0 0
10:55 am 10:55 Mostly Cloudy 45 7 32 0 61 61 WNW 14 22 29.93 1014 10 16.0934 0 0
11:15 am 11:15 Mostly Cloudy 45 7 32 0 61 61 W 13 20 29.93 1014 10 16.0934 0 0
11:35 am 11:35 Cloudy 45 7 32 0 61 61 NNW 10 17 29.93 1014 10 16.0934 0 0
11:55 am 11:55 Cloudy 45 7 32 0 61 61 NW 12 19 29.92 1013 10 16.0934 0 0
12:15 pm 12:15 Cloudy 45 7 32 0 61 61 NW 14 22 29.91 1013 10 16.0934 0 0
12:35 pm 12:35 Cloudy 43 6 32 0 66 66 WNW 13 20 29.91 1013 10 16.0934 0 0
12:55 pm 12:55 Cloudy 45 7 32 0 61 61 NW 10 17 29.9 1013 10 16.0934 0 0
1:15 pm 13:15 Cloudy 45 7 32 0 61 61 WNW 13 20 29.89 1012 10 16.0934 0 0
1:35 pm 13:35 Cloudy 45 7 32 0 61 61 WNW 13 20 29.89 1012 10 16.0934 0 0
1:55 pm 13:55 Cloudy 45 7 32 0 61 61 NW 9 15 29.89 1012 10 16.0934 0 0
2:15 pm 14:15 Cloudy 43 6 32 0 66 66 WNW 8 13 29.88 1012 10 16.0934 0 0
2:35 pm 14:35 Cloudy 43 6 32 0 66 66 WNW 12 19 29.88 1012 10 16.0934 0 0
2:55 pm 14:55 Cloudy 45 7 32 0 61 61 WNW 13 20 29.88 1012 10 16.0934 0 0
3:15 pm 15:15 Cloudy 45 7 32 0 61 61 WNW 8 13 29.88 1012 10 16.0934 0 0
3:35 pm 15:35 Cloudy 45 7 32 0 61 61 WNW 8 13 29.89 1012 10 16.0934 0 0
3:55 pm 15:55 Cloudy 43 6 32 0 66 66 NW 13 20 29.89 1012 10 16.0934 0 0
4:15 pm 16:15 Mostly Cloudy 43 6 32 0 66 66 NW 12 19 29.89 1012 10 16.0934 0 0
4:35 pm 16:35 Mostly Cloudy 43 6 30 -1 61 61 WNW 10 17 29.89 1012 10 16.0934 0 0
4:55 pm 16:55 Cloudy 43 6 30 -1 61 61 WNW 13 20 29.9 1013 10 16.0934 0 0
5:15 pm 17:15 Cloudy 43 6 30 -1 61 61 WNW 10 17 29.9 1013 10 16.0934 0 0
5:35 pm 17:35 Cloudy 41 5 30 -1 66 66 WNW 12 19 29.9 1013 10 16.0934 0 0
5:55 pm 17:55 Cloudy 41 5 30 -1 66 66 NW 9 15 29.91 1013 10 16.0934 0 0
6:15 pm 18:15 Cloudy 41 5 30 -1 66 66 NW 10 17 29.92 1013 10 16.0934 0 0
6:35 pm 18:35 Cloudy 41 5 30 -1 66 66 NNW 6 9 29.92 1013 10 16.0934 0 0
6:55 pm 18:55 Cloudy 41 5 30 -1 66 66 NW 10 17 29.93 1014 10 16.0934 0 0
7:15 pm 19:15 Cloudy 41 5 30 -1 66 66 NW 9 15 29.93 1014 10 16.0934 0 0
7:35 pm 19:35 Cloudy 41 5 30 -1 66 66 NW 8 13 29.93 1014 10 16.0934 0 0
7:55 pm 19:55 Cloudy 39 4 30 -1 70 70 NW 9 15 29.93 1013 10 16.0934 0 0
8:15 pm 20:15 Cloudy 39 4 32 0 75 75 NW 9 15 29.93 1013 10 16.0934 0 0
8:35 pm 20:35 Cloudy 39 4 32 0 75 75 NW 6 9 29.92 1013 10 16.0934 0 0
8:55 pm 20:55 Cloudy 39 4 30 -1 70 70 WNW 5 7 29.91 1013 10 16.0934 0 0
9:15 pm 21:15 Cloudy 37 3 30 -1 75 75 Calm 29.91 1013 10 16.0934 0 0
9:35 pm 21:35 Mostly Cloudy 39 4 30 -1 70 70 Calm 29.9 1012 10 16.0934 0 0
9:55 pm 21:55 Cloudy 37 3 30 -1 75 75 Calm 29.9 1012 10 16.0934 0 0
10:15 pm 22:15 Cloudy 37 3 30 -1 75 75 S 3 6 29.9 1012 10 16.0934 0 0
10:35 pm 22:35 Cloudy 37 3 30 -1 75 75 Calm 29.89 1012 10 16.0934 0 0
10:55 pm 22:55 Partly Cloudy 36 2 30 -1 81 81 SW 3 6 29.88 1012 10 16.0934 0 0
11:15 pm 23:15 Partly Cloudy 34 1 30 -1 87 87 Calm 29.88 1012 10 16.0934 0 0
11:35 pm 23:35 Mostly Cloudy 34 1 30 -1 87 87 SSW 3 6 29.88 1012 10 16.0934 0 0
11:55 pm 23:55 Cloudy 34 1 30 -1 87 87 SSW 3 6 29.87 1012 10 16.0934 0 0

Powered by AerisWeather